Location: Franzen
(48.6167°N, 15.3833°E)
Time: 13:01:22
(UTC+00:00)

CARTOSAT-1 - Visible Passes

Search period start: 27 July 2021 00:00
Search period end: 06 August 2021 00:00
Orbit: 616 x 618 km, 97.8° (Epoch: 26 July)

Date Brightness Start Highest point End Pass type
(mag) Time Alt. Az. Time Alt. Az. Time Alt. Az.
27 Jul 4.2 19:36:10 10° SE 19:40:13 40° ENE 19:44:16 10° N visible
27 Jul 5.5 21:13:15 11° SW 21:16:26 23° W 21:19:55 10° NW visible
28 Jul 3.7 19:52:49 13° SSE 19:56:34 58° ENE 20:00:51 10° N visible
28 Jul 5.9 21:30:17 10° SW 21:33:02 16° W 21:35:46 10° NW visible
29 Jul 3.5 20:09:29 16° SSE 20:12:58 85° ENE 20:17:20 10° NNW visible
29 Jul 6.2 21:48:19 10° WSW 21:49:40 11° W 21:50:59 10° WNW visible
30 Jul 3.8 20:26:10 17° S 20:29:25 66° WSW 20:33:45 10° NNW visible
31 Jul 5.1 19:06:45 10° ESE 19:10:05 22° ENE 19:13:26 10° NNE visible
31 Jul 4.4 20:42:50 17° SSW 20:45:54 45° W 20:50:04 10° NNW visible
01 Aug 4.6 19:22:36 10° SE 19:26:23 31° ENE 19:30:11 10° N visible
01 Aug 5.0 20:59:31 15° SSW 21:02:25 31° W 21:06:18 10° NNW visible
02 Aug 4.1 19:39:05 13° SE 19:42:43 43° ENE 19:46:49 10° N visible
02 Aug 5.6 21:16:12 13° SW 21:18:58 22° W 21:22:21 10° NW visible
03 Aug 3.7 19:55:47 16° SSE 19:59:05 62° ENE 20:03:22 10° N visible
03 Aug 6.0 21:33:00 10° SW 21:35:34 15° W 21:38:09 10° NW visible
04 Aug 3.5 20:12:26 19° SSE 20:15:29 90° WSW 20:19:51 10° NNW visible
04 Aug 6.3 21:51:24 10° W 21:52:13 10° W 21:53:02 10° WNW visible
05 Aug 3.9 20:29:08 21° S 20:31:56 62° W 20:36:14 10° NNW visible
